Regional Weather Roundup
Issued by NWS Wakefield, VA

Home | Current Version | Previous Version | Text Only | Print | Product List | Glossary On
Versions: 1 2 3 4 5 6 7 8 9 10 11 12 13 14 15 16 17 18 19 20 21 22 23 24 25 26 27 28 29 30 31 32 33 34 35 36 37 38 39 40 41 42 43 44 45 46 47 48 49 50
000
ASUS41 KAKQ 221910
RWRAKQ

REGIONAL WEATHER ROUNDUP
NATIONAL WEATHER SERVICE WAKEFIELD VA
200 PM EST MON DEC 22 2014

Note: "fair" indicates few or no clouds below 12,000 feet with no
significant weather and/or obstructions to visibility. * = Denotes
station may not report precipitation (e.g., rain,snow,etc.),
thunder or fog.

VAZ042-051-052>054-056-222000-
NORTHERN VIRGINIA

CITY           SKY/WX    TMP DP  RH WIND       PRES   REMARKS
WASH NATIONAL  LGT RAIN  38  30  73 NE7       30.21F
DULLES         LGT RAIN  32  30  92 N3        30.19F FOG
FORT BELVOIR   NOT AVBL
QUANTICO       LGT RAIN  36  32  85 NE8       30.20F FOG
FREDERICKSBRG* DRIZZLE   36  36 100 N6        30.17F
STAFFORD*      HVY RAIN  34  34 100 N5        30.22F
WARRENTON      LGT RAIN  34  34 100 N5        30.17F
CULPEPER*      RAIN      36  34  93 N5        30.18F
MANASSAS*      CLOUDY    36  34  93 N8        30.19  FOG
LEESBURG*      MIX PCPN  34  34 100 N3        30.20F
WINCHESTER     MIX PCPN  34  30  86 NE3       30.17F
FRONT ROYAL*   CLOUDY    32  32 100 NE5       30.15F VSB 1
LURAY*         DRZL/FOG  34  34 100 NE5       30.14F VSB 1
$$

VAZ048-049-060>072-079>083-222000-
CENTRAL AND SOUTH CENTRAL VIRGINIA

CITY           SKY/WX    TMP DP  RH WIND       PRES   REMARKS
RICHMOND       RAIN      39  36  87 N8        30.14S FOG
CHESTERFIELD*  CLOUDY    37  27  65 N6        30.13F
PETERSBURG*    CLOUDY    39  38  97 N9        30.12F FOG
HANOVER        LGT RAIN  36  34  92 VRB6      30.15F FOG
TAPPAHANNOCK*  LGT RAIN  38  35  89 N6        30.15F
QUINTON*       CLOUDY    37  37  97 N5        30.13S
CHARLOTTSVILLE CLOUDY    34  32  92 NE7       30.15F FOG
GORDONSVILLE*  CLOUDY    33  32  96 NE5       30.15F FOG
ORANGE*        DRIZZLE   34  32  93 NW5       30.18F
LOUISA*        DRIZZLE   34  34 100 N6        30.14F
BUMPASS*       CLOUDY    33  33  96 NE3       30.15F
FARMVILLE*     DRIZZLE   37  37 100 N7          N/A
CREWE*         CLOUDY    36  34  94 N6        30.10F
FORT PICKETT*  CLOUDY    36  35  98 N9        30.09F
CHASE CITY*    CLOUDY    37  37 100 N9        30.09F
CLARKSVILLE*   CLOUDY    36  36 100 CALM      30.09F
SOUTH HILL*    CLOUDY    37  36  96 N8        30.14F
LAWRENCEVILLE* CLOUDY    37  37  99 N8        30.11R
EMPORIA*       DRIZZLE   37  37 100 NW9       30.10S
$$

VAZ088>098-222000-
SOUTHEAST VIRGINIA

CITY           SKY/WX    TMP DP  RH WIND       PRES   REMARKS
NORFOLK        LGT RAIN  47  45  93 NE12      30.06F
VIRGINIA BEACH LGT RAIN  50  48  93 N14G23    30.05F FOG
NORFOLK NAVAL  LGT RAIN  50  46  86 NE15      30.06F FOG
WEST POINT*    CLOUDY    42  39  90 N8        30.11F
SALUDA*        CLOUDY    41  39  95 NE7       30.10F
NEWPORT NEWS   LGT RAIN  46  42  86 NE9       30.08F FOG
LANGLEY AFB    NOT AVBL
FORT EUSTIS    NOT AVBL
WILLIAMSBURG*  CLOUDY    45  43  93 NE5       30.10F
HR EXEC AP*    CLOUDY    48  45  87 NE16      30.06F
FRANKLIN*      CLOUDY    45 N/A N/A NE8       30.06F
WAKEFIELD      CLOUDY    42  40  92 N7        30.08F
$$

VAZ020-022-025-037-045-222000-
WEST CENTRAL AND SOUTHWEST VIRGINIA

CITY           SKY/WX    TMP DP  RH WIND       PRES   REMARKS
STAUNTON*      DRIZZLE   34  32  92 CALM      30.13F
WAYNESBORO*    CLOUDY    32  31  97 CALM      30.10F
HOT SPRINGS VA FOG       32  32 100 CALM      29.96F VSB<1/4
LYNCHBURG      CLOUDY    33  32  96 NE14      30.11F FOG     WCI  23
DANVILLE       CLOUDY    36  33  89 NE9       30.11F
SOUTH BOSTON*  CLOUDY    35  34  94 NE7       30.11F
MARTINSVILLE   CLOUDY    36  36 100 N6        30.10F FOG
ROANOKE        CLOUDY    36  33  89 SE5       30.10F FOG
BLACKSBURG     CLOUDY    34  32  93 E3        30.07F FOG
DUBLIN*        CLOUDY    36  35  98 E6        30.05F FOG
MARION*        CLOUDY    37  35  90 NE8       30.01F FOG
HILLSVILLE*    FOG       35  35  99 NE5       30.00F VSB 3/4
RICHLANDS*     PTCLDY    51  37  59 SE12      29.92F
WISE*          PTSUNNY   54  37  54 S7        29.91F
ABINGDON*      MOSUNNY   56  41  58 E15       29.91F
$$

MDZ021>025-VAZ099-100-222000-
SOUTHERN MARYLAND AND THE DELMARVA PENINSULA

CITY           SKY/WX    TMP DP  RH WIND       PRES   REMARKS
PATUXENT RIVER LGT RAIN  37  34  89 N12       30.16F FOG
BAY BRIDGE APT LGT RAIN  36  32  87 N6        30.19F
LEONARDTOWN    CLOUDY    36  34  93 MISG        N/A
DOVER          NOT AVBL
GEORGETOWN     LGT RAIN  41  37  86 NE8       30.19S FOG
EASTON         RAIN      37  37 100 NE7       30.22F
CAMBRIDGE      CLOUDY    39  34  81 N7        30.17F
SALISBURY      LGT RAIN  44  40  85 NE10      30.16F FOG
OCEAN CITY     LGT RAIN  45  42  89 NE9       30.16F FOG
WALLOPS ISLAND CLOUDY    44  43  96 NE21      30.13F
ACCOMACK*      CLOUDY    46  43  87 NE15G22   30.10F
$$

NCZ012>017-030>032-222000-
NORTH CENTRAL AND EASTERN NORTH CAROLINA

CITY           SKY/WX    TMP DP  RH WIND       PRES   REMARKS
ROANOKE RAPIDS DRIZZLE   37  37 100 N8        30.06F
RALEIGH        DRIZZLE   38  35  89 NE6       30.07F FOG
ELIZABETH CITY LGT RAIN  55  50  83 NE15      30.00F
AHOSKIE*       HVY RAIN  42  41  96 N7        30.06F
EDENTON*       CLOUDY    51  50  98 N10       29.99F FOG
CURRITUCK*     LGT RAIN  51  49  94 NE16      30.00F
KILL DEVIL HLS DRIZZLE   56  56 100 CALM      29.96S
MANTEO         CLOUDY    55  55  99 N7        29.96F
CAPE HATTERAS  CLOUDY    61  60  97 S7        29.93F FOG
TARBORO*       NOT AVBL
GOLDSBORO      NOT AVBL
WASHINGTON     CLOUDY    48  47  95 N8        30.02R
GREENVILLE     DRIZZLE   45  45 100 N7        30.05S
NEW BERN       CLOUDY    52  48  86 MISG      30.01F
WILMINGTON     CLOUDY    47  45  93 N9        29.99F
$$

VAZ048-222000-
ELSEWHERE

CITY           SKY/WX    TMP DP  RH WIND       PRES   REMARKS
HARRISBURG PA  CLOUDY    34  26  72 CALM      30.21F
BALTIMORE      LGT RAIN  36  29  75 NE5       30.19F
ANNAPOLIS      LGT RAIN  35  31  85 N8        30.20F FOG
ANDREWS AFB    NOT AVBL
PHILADELPHIA   CLOUDY    44  33  65 N3        30.22F
HENDERSON NC   CLOUDY    36  35  95 N7        30.08F FOG
GREENSBORO     DRIZZLE   35  34  96 NE13      30.06F FOG
ROCKY MOUNT    CLOUDY    41  39  93 N9        30.08R FOG
$$

VAZ100-222000-
MARINE

STATION/POSITION TIME  TEMP    WIND        PRES    WAVE   SWELL
                       AIR SEA DIR/SP/G            HT/PER HT/PER
                 (UTC) (F)     (DEG/KT/KT) (MB)    (FT/S) (FT/S)
CAPE MAY NJ      1900   42 43   60/  6/ 10 1021.9F
LEWES DE         1900   41 41   70/ 10/ 11 1022.3R
15NM E FENWICK I 1900   46 45              1021.3F   2/10
OCEAN-CITY-INLET 1900   45 44   70/  4/  9 1020.9F
WACHAPREAGUE VA  1900   45 40   40/ 14/ 19 1019.1F
THOMAS POINT MD  1900   35 41   10/ 12/ 13 1023.2F
GOOSES REEF MD   1900   36     VRB 12/ 14  1020.9F   1/ 3
COVE POINT MD    1900   36      20/ 11/ 13 1021.5F
SOLOMONS ISLAND  1900      42                N/A
BISHOPS HEAD MD  1900   38 38   10/  7/ 13 1020.7F
PINEY POINT MD   1900           40/  7/  9   N/A
POTOMAC MD       1900   39 42   30/ 16/ 19 1019.5F   1/ 3
CAMBRIDGE MD     1900   38 39   10/  7/  8 1022.0R
LEWISETTA VA     1900   39 41   30/  7/ 11 1020.3F
RAPPAHANNOCK LGT 1900           30/ 17/ 18 1019.4F
STINGRAY PT      1900   42 43   30/ 17/ 21 1019.5F   2/ 3
YORK RVR RNG VA  1900   43      40/ 20/ 23 1017.4F
YORKTOWN VA      1900   43 45   30/ 11/ 13 1018.3F
JAMESTOWN VA     1900   40 46   40/  6/ 10   N/A     0
DOMINION TERM VA 1900   44      30/  8/ 12 1018.2F
KIPTOPEKE VA     1900      48   60/ 13/ 17   N/A
CHES BAY BRIDGE  1900   47 46   20/ 16/ 19 1017.2F
CAPE HENRY VA    1900   48      30/ 21/ 24 1016.5R
CHESAPEAKE LGHT  1800   49      60/ 26/ 30 1017.9F
WILLOUBY STN VA  1900   45      30/ 15/ 16 1018.4F
S CRANEY ISL VA  1900           40/ 17/ 20 1017.0F
CAPE HENRY BUOY  1800      49                N/A     6/ 6
1ST LANDING BUOY 1900   47 47   40/ 19/ 23 1017.2F   4/ 4
CAPE CHARLES BUO 1900      46                N/A     5/ 6   2/11
64NM E OF VA BCH 1900   58 54   60/ 19/ 21 1015.2F   8/ 7   2/15
DUCK PIER NC     1900   52 46   30/ 22/ 23 1013.8F
44100 DUCK FRF   1900      51                N/A     8/ 6
44056 DUCK FRF   1900      47                N/A     7/ 7
OREGON INLET NC  1900   57 48  170/  1/  4 1014.1F
HATTERAS NC      1900   60 53  260/  4/ 10 1014.1S
DIAMOND SHLS NC  1900   70                 1013.2F  10/ 8
CAPE LOOKOUT NC  1800   51     340/  9/ 11 1014.7F
$$


USA.gov is the U.S. government's official web portal to all federal, state and local government web resources and services.